When you browse on this site, cookies collect data to enhance your experience and personalize the content and advertising you see.
Visit our Privacy Policy to learn more. By continuing to use the site, you agree to this use of cookies and data.
  • In Portugal
  • List of Countries
  • For 7 days
  • Water Temperature
  • Weather Map
  • Weather Widgets
  • user-avatar
    Login

    Hourly Weather Baraki Barak

    Today, 12 December, Thursday

    Time Temperature Precipitation Wind Pressure Humidity
    00:00 +3°C° 0 mm 1 mps 594 mmHg 68%
    01:00 +3°C° 0 mm 1 mps 594 mmHg 70%
    02:00 +3°C° 0 mm 1 mps 594 mmHg 71%
    03:00 +3°C° 0 mm 1 mps 593 mmHg 75%
    04:00 +2°C° 0 mm 1 mps 593 mmHg 80%
    05:00 +2°C° 0 mm 1 mps 592 mmHg 82%
    06:00 +2°C° 0 mm 1 mps 593 mmHg 83%
    07:00 +2°C° 0 mm 1 mps 593 mmHg 83%
    08:00 +2°C° 0 mm 1 mps 593 mmHg 83%
    09:00 +2°C° 0.1 mm 1 mps 593 mmHg 81%
    10:00 +3°C° 0.1 mm 1 mps 593 mmHg 80%
    11:00 +3°C° 0 mm 1 mps 593 mmHg 76%
    12:00 +4°C° 0.1 mm 1 mps 593 mmHg 74%
    13:00 +4°C° 0.1 mm 1 mps 593 mmHg 72%
    14:00 +3°C° 0.1 mm 2 mps 592 mmHg 70%
    15:00 +3°C° 0.1 mm 2 mps 592 mmHg 73%
    16:00 +4°C° 0.1 mm 1 mps 591 mmHg 77%
    17:00 +3°C° 0.1 mm 1 mps 591 mmHg 80%
    18:00 +3°C° 0.4 mm 1 mps 591 mmHg 84%
    19:00 +2°C° 0.4 mm 1 mps 592 mmHg 89%
    20:00 +2°C° 0.4 mm 1 mps 592 mmHg 93%
    21:00 +2°C° 0.5 mm 1 mps 592 mmHg 93%
    22:00 +2°C° 0.5 mm 1 mps 592 mmHg 93%
    23:00 +2°C° 0.5 mm 1 mps 592 mmHg 93%

    Tomorrow, 13 December, Friday

    Time Temperature Precipitation Wind Pressure Humidity
    00:00 +2°C° 0.6 mm 1 mps 592 mmHg 94%
    01:00 +1°C° 0.6 mm 1 mps 592 mmHg 95%
    02:00 +1°C° 0.6 mm 1 mps 592 mmHg 95%
    03:00 +1°C° 0.3 mm 1 mps 591 mmHg 95%
    04:00 +1°C° 0.3 mm 1 mps 591 mmHg 95%
    05:00 +1°C° 0.3 mm 1 mps 591 mmHg 95%
    06:00 +1°C° 0.1 mm 1 mps 591 mmHg 94%
    07:00 0°C° 0.1 mm 1 mps 592 mmHg 93%
    08:00 0°C° 0.1 mm 1 mps 592 mmHg 92%
    09:00 +1°C° 0 mm 1 mps 592 mmHg 88%
    10:00 +1°C° 0 mm 1 mps 592 mmHg 84%
    11:00 +2°C° 0 mm 1 mps 592 mmHg 80%
    12:00 +3°C° 0 mm 1 mps 592 mmHg 79%
    13:00 +3°C° 0 mm 1 mps 592 mmHg 77%
    14:00 +3°C° 0 mm 1 mps 591 mmHg 75%
    15:00 +3°C° 0 mm 1 mps 591 mmHg 77%
    16:00 +2°C° 0 mm 1 mps 591 mmHg 79%
    17:00 +2°C° 0 mm 1 mps 591 mmHg 81%
    18:00 -1°C° 0 mm 2 mps 592 mmHg 81%
    19:00 -1°C° 0 mm 2 mps 592 mmHg 81%
    20:00 -2°C° 0 mm 2 mps 593 mmHg 81%
    21:00 -2°C° 0 mm 2 mps 593 mmHg 81%
    22:00 -2°C° 0 mm 2 mps 593 mmHg 80%
    23:00 -2°C° 0 mm 2 mps 593 mmHg 79%

    Day after tomorrow, 14 December, Saturday

    Time Temperature Precipitation Wind Pressure Humidity
    00:00 -1°C° 0 mm 1 mps 594 mmHg 78%
    01:00 -1°C° 0 mm 1 mps 594 mmHg 77%
    02:00 -1°C° 0 mm 1 mps 594 mmHg 76%
    03:00 -2°C° 0 mm 1 mps 594 mmHg 76%
    04:00 -2°C° 0 mm 1 mps 594 mmHg 75%
    05:00 -2°C° 0 mm 1 mps 594 mmHg 74%
    06:00 -2°C° 0 mm 1 mps 594 mmHg 73%
    07:00 -2°C° 0 mm 1 mps 595 mmHg 71%
    08:00 -2°C° 0 mm 1 mps 595 mmHg 70%
    09:00 -1°C° 0 mm 1 mps 596 mmHg 66%
    10:00 0°C° 0 mm 1 mps 596 mmHg 63%
    11:00 +1°C° 0 mm 1 mps 596 mmHg 59%
    12:00 +1°C° 0 mm 1 mps 596 mmHg 58%
    13:00 +2°C° 0 mm 1 mps 596 mmHg 57%
    14:00 +1°C° 0 mm 0 mps 596 mmHg 57%
    15:00 0°C° 0 mm 0 mps 595 mmHg 60%
    16:00 -1°C° 0 mm 0 mps 595 mmHg 64%
    17:00 0°C° 0 mm 1 mps 595 mmHg 68%
    18:00 -1°C° 0 mm 1 mps 595 mmHg 67%
    19:00 -1°C° 0 mm 1 mps 596 mmHg 67%
    20:00 -2°C° 0 mm 1 mps 596 mmHg 66%
    21:00 -2°C° 0 mm 1 mps 596 mmHg 64%
    22:00 -2°C° 0 mm 1 mps 596 mmHg 62%
    23:00 -2°C° 0 mm 1 mps 596 mmHg 60%

    15 December, Sunday

    Time Temperature Precipitation Wind Pressure Humidity
    00:00 -2°C° 0 mm 1 mps 596 mmHg 58%
    01:00 -3°C° 0 mm 1 mps 596 mmHg 57%
    02:00 -3°C° 0 mm 1 mps 596 mmHg 56%
    03:00 -3°C° 0 mm 1 mps 596 mmHg 55%
    04:00 -3°C° 0 mm 1 mps 595 mmHg 54%
    05:00 -4°C° 0 mm 1 mps 595 mmHg 53%
    06:00 -4°C° 0 mm 1 mps 595 mmHg 52%
    07:00 -4°C° 0 mm 1 mps 595 mmHg 50%
    08:00 -4°C° 0 mm 1 mps 596 mmHg 49%
    09:00 -3°C° 0 mm 1 mps 596 mmHg 46%
    10:00 -1°C° 0 mm 1 mps 596 mmHg 43%
    11:00 0°C° 0 mm 1 mps 596 mmHg 39%
    12:00 0°C° 0 mm 1 mps 595 mmHg 39%
    13:00 0°C° 0 mm 0 mps 595 mmHg 39%
    14:00 +1°C° 0 mm 0 mps 595 mmHg 39%
    15:00 0°C° 0 mm 0 mps 594 mmHg 43%
    16:00 -1°C° 0 mm 0 mps 594 mmHg 48%
    17:00 -2°C° 0 mm 0 mps 594 mmHg 52%
    18:00 -2°C° 0 mm 0 mps 594 mmHg 51%
    19:00 -2°C° 0 mm 1 mps 595 mmHg 51%
    20:00 -2°C° 0 mm 1 mps 595 mmHg 50%
    21:00 -2°C° 0 mm 1 mps 595 mmHg 49%
    22:00 -2°C° 0 mm 1 mps 596 mmHg 47%
    23:00 -2°C° 0 mm 1 mps 596 mmHg 46%

    16 December, Monday

    Time Temperature Precipitation Wind Pressure Humidity
    00:00 -3°C° 0 mm 1 mps 596 mmHg 44%
    01:00 -3°C° 0 mm 1 mps 595 mmHg 42%
    02:00 -3°C° 0 mm 1 mps 595 mmHg 41%
    03:00 -3°C° 0 mm 1 mps 595 mmHg 40%
    04:00 -3°C° 0 mm 1 mps 595 mmHg 39%
    05:00 -4°C° 0 mm 1 mps 595 mmHg 38%
    06:00 -4°C° 0 mm 1 mps 595 mmHg 38%
    07:00 -4°C° 0 mm 1 mps 596 mmHg 38%
    08:00 -4°C° 0 mm 1 mps 596 mmHg 38%
    09:00 -2°C° 0 mm 1 mps 596 mmHg 36%
    10:00 -1°C° 0 mm 1 mps 596 mmHg 35%
    11:00 0°C° 0 mm 1 mps 597 mmHg 33%
    12:00 +1°C° 0 mm 1 mps 596 mmHg 34%
    13:00 +1°C° 0 mm 1 mps 596 mmHg 35%
    14:00 +1°C° 0 mm 0 mps 596 mmHg 35%
    15:00 0°C° 0 mm 0 mps 596 mmHg 39%
    16:00 0°C° 0 mm 1 mps 595 mmHg 43%
    17:00 -1°C° 0 mm 1 mps 595 mmHg 47%
    18:00 -1°C° 0 mm 1 mps 596 mmHg 46%
    19:00 -2°C° 0 mm 1 mps 596 mmHg 45%
    20:00 -2°C° 0 mm 1 mps 596 mmHg 45%
    21:00 -2°C° 0 mm 1 mps 597 mmHg 43%
    22:00 -2°C° 0 mm 1 mps 597 mmHg 42%
    23:00 -2°C° 0 mm 1 mps 597 mmHg 41%

    17 December, Tuesday

    Time Temperature Precipitation Wind Pressure Humidity
    00:00 -3°C° 0 mm 1 mps 597 mmHg 40%
    01:00 -3°C° 0 mm 1 mps 596 mmHg 39%
    02:00 -3°C° 0 mm 1 mps 596 mmHg 37%
    03:00 -3°C° 0 mm 1 mps 596 mmHg 36%
    04:00 -3°C° 0 mm 1 mps 596 mmHg 35%
    05:00 -3°C° 0 mm 1 mps 596 mmHg 34%
    06:00 -3°C° 0 mm 1 mps 596 mmHg 33%
    07:00 -3°C° 0 mm 1 mps 597 mmHg 32%
    08:00 -3°C° 0 mm 1 mps 597 mmHg 31%
    09:00 -2°C° 0 mm 1 mps 597 mmHg 30%
    10:00 -1°C° 0 mm 1 mps 597 mmHg 29%
    11:00 +1°C° 0 mm 1 mps 598 mmHg 28%
    12:00 +1°C° 0 mm 1 mps 597 mmHg 28%
    13:00 +2°C° 0 mm 1 mps 597 mmHg 29%
    14:00 +3°C° 0 mm 1 mps 596 mmHg 30%
    15:00 +2°C° 0 mm 1 mps 596 mmHg 31%
    16:00 +1°C° 0 mm 1 mps 596 mmHg 33%
    17:00 0°C° 0 mm 1 mps 596 mmHg 35%
    18:00 0°C° 0 mm 1 mps 596 mmHg 34%
    19:00 -1°C° 0 mm 1 mps 596 mmHg 33%
    20:00 -1°C° 0 mm 1 mps 596 mmHg 31%
    21:00 -1°C° 0 mm 1 mps 596 mmHg 31%
    22:00 -1°C° 0 mm 1 mps 597 mmHg 30%
    23:00 -1°C° 0 mm 1 mps 597 mmHg 30%
    Show more